Location: Cahas Mountain Overlook
(37.0833°N, 80.1000°W)
Time: 11:22:30
(UTC-04:00)

Vanguard 1 Rocket - Pass Details

Date: 13 February 2026
Orbit: 653 x 4214 km, 34.3° (Epoch: 15 March)

Event Time Altitude Azimuth Distance (km) Brightness Sun altitude
Rises 19:49:47 0° 284° (WNW) 6,851 13.2 -22.8°
Reaches altitude 10° 19:53:47 10° 281° (W) 6,199 12.7 -23.6°
Maximum altitude 20:15:16 59° 209° (SSW) 4,536 10.8 -27.8°
Enters shadow 20:35:23 20° 141° (SE) 6,275 11.2 -31.8°
